[[{"header":{"parameterUnit":"m.s-1","parameterCategory":1,"la1":30.2991,"la2":30.254,"lo1":-89.0895,"lo2":-89.0444,"dy":0.0017,"dx":0.0017,"nx":28,"ny":28,"refTime":"2025-08-29T09:00:00:Z","depth":0,"parameterNumber":2,"parameterNumberName":"U-component_of_WINDS"},"data":[0,0,0,0,0,0,0,0,0,0,0,0,0,0,0,0,0,0,0,0,0,0,0,0,0,0,0,0,0,0,0,0,0,0,0,0,0,0,0,0,0,0,0,0,0,0,0,0,0,0,0,0,0,0,0,0,0,0,-0.1326,-0.1326,0,-0.1332,-0.1333,-0.1333,-0.14,-0.1402,-0.1403,-0.1405,-0.1409,-0.1407,-0.1406,0,0,0,0,0,0,0,0,0,0,0,0,0,-0.1371,-0.137,-0.1326,-0.1326,-0.1326,-0.1332,-0.1333,-0.1333,-0.14,-0.1402,-0.1404,-0.1406,-0.1409,-0.1408,-0.1406,0,0,0,0,0,0,0,0,0,0,0,0,0,-0.1362,-0.1369,-0.1326,-0.1361,-0.1364,-0.1332,-0.1333,-0.1333,-0.1399,-0.1402,-0.1404,-0.1407,-0.141,-0.1408,-0.1406,-0.1341,0,0,-0.1399,-0.1398,0,0,0,0,0,0,0,0,-0.1362,-0.136,-0.1356,-0.1358,-0.1362,-0.1368,-0.135,-0.1335,-0.1399,-0.1386,-0.1405,-0.1408,-0.1393,-0.1392,-0.1388,-0.1341,-0.1341,-0.1399,-0.1397,-0.1396,-0.1396,0,0,0,0,0,0,0,-0.1363,-0.136,-0.1329,-0.1355,-0.1359,-0.1375,-0.1377,-0.1347,-0.1375,-0.1387,-0.1392,-0.1392,-0.1395,-0.139,-0.1389,-0.1341,-0.1399,-0.1397,-0.1395,-0.1394,-0.1242,-0.1239,0,0,0,0,0,0,-0.1359,-0.136,-0.1328,-0.1329,-0.1368,-0.1373,-0.1374,-0.1363,-0.1376,-0.138,-0.139,-0.1395,-0.1392,-0.1391,-0.1389,-0.1314,-0.1396,-0.1394,-0.1393,-0.1245,-0.1241,-0.1238,0,0,0,0,0,0,-0.136,-0.1355,-0.1328,-0.1346,-0.1344,-0.1369,-0.1356,-0.1362,-0.1357,-0.1378,-0.1383,-0.1379,-0.1394,-0.1392,-0.1353,-0.1315,-0.1393,-0.1391,-0.1248,-0.1244,-0.124,-0.1162,0,0,0,0,0,0,-0.1361,-0.1355,-0.1331,-0.1345,-0.1342,-0.1292,-0.1354,-0.1361,-0.1353,-0.136,-0.1369,-0.1373,-0.1396,-0.1356,-0.135,-0.1313,-0.1389,-0.1251,-0.1246,-0.1241,-0.1168,-0.1156,-0.1146,0,0,0,0,0,-0.1362,-0.1308,-0.1329,-0.1325,-0.1313,-0.1289,-0.1288,-0.1317,-0.135,-0.1326,-0.1339,-0.1373,-0.132,-0.1351,-0.1346,-0.1307,-0.1254,-0.1247,-0.1242,-0.1174,-0.1159,-0.1146,0,0,0,0,0,0,-0.1288,-0.1311,-0.1334,-0.1284,-0.1284,-0.1301,-0.1271,-0.13,-0.129,-0.1297,-0.1333,-0.1334,-0.1289,-0.1295,-0.1328,-0.1245,-0.1293,-0.1285,-0.1243,-0.1229,-0.1218,-0.1217,-0.1388,0,0,0,0,0,-0.1266,-0.1246,-0.1267,-0.122,-0.1219,-0.1245,-0.1236,-0.1258,-0.126,-0.126,-0.1271,-0.127,-0.1254,-0.1242,-0.1228,-0.117,-0.1173,-0.1141,-0.113,-0.1121,-0.1113,-0.1083,-0.1069,-0.1218,-0.1218,-0.1219,0,0,-0.122,-0.123,-0.1215,-0.1205,-0.1208,-0.1186,-0.1244,-0.1218,-0.1202,-0.1256,-0.1219,-0.1227,-0.1229,-0.118,-0.1159,-0.1183,-0.1073,-0.1113,-0.1105,-0.1103,-0.1075,-0.1061,-0.1049,-0.1214,-0.1215,-0.1216,0,0,-0.1124,-0.113,-0.1092,-0.1094,-0.1099,-0.1117,-0.1107,-0.112,-0.1127,-0.1092,-0.1132,-0.1113,-0.1084,-0.1084,-0.108,-0.0986,-0.1016,-0.0981,-0.092,-0.0891,-0.0879,-0.0868,-0.0834,-0.0822,-0.0973,-0.0973,-0.0973,0,-0.1066,-0.1034,-0.1068,-0.104,-0.1034,-0.1084,-0.1045,-0.1046,-0.1044,-0.1039,-0.1067,-0.1032,-0.1037,-0.0989,-0.0966,-0.0962,-0.0952,-0.0979,-0.0878,-0.0868,-0.0859,-0.0826,-0.0814,-0.0969,-0.0969,-0.097,-0.097,0,-0.0962,-0.094,-0.0909,-0.0908,-0.0899,-0.0865,-0.0894,-0.0881,-0.0905,-0.0919,-0.0882,-0.089,-0.0879,-0.087,-0.0892,-0.0824,-0.0839,-0.0872,-0.092,-0.084,-0.081,-0.0798,-0.0962,-0.0964,-0.0965,-0.0966,0,0,-0.0818,-0.0838,-0.0825,-0.0826,-0.0835,-0.0818,-0.0787,-0.0777,-0.0765,-0.0764,-0.0738,-0.0713,-0.0744,-0.0739,-0.0762,-0.0736,-0.0661,-0.0772,-0.0773,-0.075,-0.0586,-0.056,-0.0546,-0.0682,-0.068,-0.0678,-0.0586,0,-0.0725,-0.0674,-0.0704,-0.0647,-0.0627,-0.0675,-0.0648,-0.065,-0.0664,-0.0648,-0.0663,-0.0644,-0.0687,-0.0684,-0.0661,-0.0675,-0.0628,-0.0682,-0.0657,-0.0656,-0.0653,-0.053,-0.0503,-0.0415,-0.0574,-0.0572,-0.0571,0,-0.0609,-0.0604,-0.0546,-0.056,-0.0552,-0.0527,-0.0521,-0.0506,-0.051,-0.0522,-0.0517,-0.0547,-0.0517,-0.0566,-0.0525,-0.0561,-0.0553,-0.0559,-0.0556,-0.0553,-0.0607,-0.0523,-0.0388,-0.0374,-0.0553,-0.0555,-0.0556,0,-0.0509,-0.0487,-0.0449,-0.0448,-0.0464,-0.0445,-0.0451,-0.0458,-0.045,-0.0444,-0.044,-0.043,-0.0425,-0.0417,-0.0443,-0.0476,-0.0398,-0.0449,-0.0406,-0.0405,-0.0386,-0.0386,-0.0246,-0.0383,-0.0383,-0.0383,-0.0383,0,-0.0401,-0.0363,-0.0405,-0.0381,-0.034,-0.0376,-0.0334,-0.0345,-0.0351,-0.033,-0.0371,-0.035,-0.0387,-0.037,-0.0391,-0.0353,-0.0351,-0.0359,-0.0364,-0.0354,-0.0353,-0.0348,-0.0354,-0.038,-0.0381,-0.0381,-0.0382,0,-0.0281,-0.0307,-0.0269,-0.0288,-0.0292,-0.0261,-0.0277,-0.0255,-0.0273,-0.0246,-0.0242,-0.0268,-0.025,-0.0276,-0.0261,-0.0275,-0.0223,-0.0239,-0.0222,-0.0226,-0.018,-0.0184,-0.0031,-0.0012,-0.0162,-0.016,-0.0159,0,-0.0209,-0.0182,-0.0198,-0.0188,-0.0191,-0.0174,-0.0166,-0.0201,-0.0191,-0.0195,-0.0173,-0.0159,-0.015,-0.0119,-0.0136,-0.0125,-0.014,-0.0087,-0.0138,-0.0129,-0.0138,-0.0138,-0.0136,-0.0076,-0.0074,-0.0073,-0.0072,0,-0.008,-0.0095,-0.0083,-0.0076,-0.0067,-0.0063,-0.0061,-0.005,-0.0087,-0.0074,-0.0057,-0.005,-0.0035,-0.002,-0.0014,-0.0019,-0.0051,-0.0056,-0.0045,-0.0033,-0.0024,-0.0028,-0.0192,-0.0059,-0.006,-0.0061,-0.0062,-0.0062,0.0019,0.0041,0.0033,0.0047,0.0044,0.0045,0.0064,0.0049,0.0062,0.0071,0.0049,0.0072,0.0066,0.0072,0.007,0.0087,0.0064,0.008,0.0084,0.0088,0.0096,-0.0028,0.0088,0.0087,0.0087,0.0087,0.0086,0,0.0147,0.0139,0.0152,0.0154,0.0165,0.0132,0.0132,0.0144,0.0163,0.0161,0.017,0.019,0.0203,0.0187,0.0197,0.0214,0.02,0.0218,0.0218,0.0217,0.0115,0.0105,0.023,0.023,0.023,0.023,0.023,0.023,0.0215,0.0251,0.0235,0.0269,0.0261,0.0281,0.0284,0.0285,0.0283,0.0306,0.0317,0.0305,0.0297,0.0306,0.0318,0.0312,0.0319,0.0343,0.0333,0.0238,0.0224,0.0211,0.0201,0.0344,0.0344,0.0433,0.0434,0.0434]},{"header":{"parameterUnit":"m.s-1","parameterCategory":1,"la1":30.2991,"la2":30.254,"lo1":-89.0895,"lo2":-89.0444,"dy":0.0017,"dx":0.0017,"nx":28,"ny":28,"refTime":"2025-08-29T09:00:00:Z","depth":0,"parameterNumber":3,"parameterNumberName":"V-component_of_WINDS"},"data":[0,0,0,0,0,0,0,0,0,0,0,0,0,0,0,0,0,0,0,0,0,0,0,0,0,0,0,0,0,0,0,0,0,0,0,0,0,0,0,0,0,0,0,0,0,0,0,0,0,0,0,0,0,0,0,0,0,0,0.9358,0.9356,0,0.9195,0.9194,0.9192,0.8934,0.8929,0.8924,0.892,0.876,0.876,0.8761,0,0,0,0,0,0,0,0,0,0,0,0,0,0.945,0.9449,0.9358,0.9356,0.9354,0.9196,0.9193,0.9191,0.8934,0.8929,0.8923,0.8918,0.876,0.876,0.8761,0,0,0,0,0,0,0,0,0,0,0,0,0,0.9361,0.9449,0.9358,0.9206,0.9191,0.9196,0.9193,0.9191,0.8936,0.8929,0.8921,0.8915,0.876,0.876,0.8761,0.8903,0,0,0.8761,0.8761,0,0,0,0,0,0,0,0,0.9367,0.9358,0.9231,0.9217,0.92,0.9077,0.9167,0.9094,0.8937,0.9033,0.892,0.8911,0.8872,0.8863,0.8848,0.8895,0.8889,0.8761,0.8761,0.8761,0.8761,0,0,0,0,0,0,0,0.9373,0.9364,0.9294,0.9229,0.921,0.9148,0.9127,0.9152,0.8994,0.9024,0.9005,0.8989,0.8862,0.8848,0.8842,0.8886,0.8761,0.8761,0.8762,0.8762,0.9042,0.9049,0,0,0,0,0,0,0.9401,0.937,0.9299,0.9289,0.9267,0.9152,0.9129,0.9124,0.8993,0.8966,0.8995,0.8977,0.8851,0.8842,0.8836,0.8994,0.8761,0.8762,0.8762,0.9034,0.9043,0.9051,0,0,0,0,0,0,0.9404,0.9397,0.9305,0.9324,0.9308,0.9158,0.9154,0.9124,0.911,0.8971,0.8942,0.901,0.8845,0.8835,0.8887,0.8985,0.8762,0.8762,0.9026,0.9037,0.9047,0.9313,0,0,0,0,0,0,0.9407,0.9399,0.9451,0.9327,0.9308,0.936,0.916,0.9126,0.911,0.9086,0.8977,0.8952,0.8839,0.8889,0.8888,0.8981,0.8762,0.9017,0.9031,0.9044,0.9295,0.9332,0.9363,0,0,0,0,0,0.9412,0.9534,0.9455,0.9448,0.9369,0.9366,0.9355,0.922,0.9119,0.9171,0.9081,0.8956,0.8973,0.8896,0.8893,0.8988,0.901,0.9027,0.9043,0.928,0.9324,0.9362,0,0,0,0,0,0,0.9677,0.9515,0.9426,0.9512,0.9454,0.9322,0.9384,0.9272,0.9244,0.9222,0.9058,0.9035,0.9109,0.9052,0.8969,0.9118,0.8972,0.8989,0.9154,0.9195,0.9228,0.9242,0.8762,0,0,0,0,0,0.9744,0.9754,0.9612,0.9702,0.9677,0.9536,0.9529,0.943,0.9365,0.934,0.9254,0.9197,0.9189,0.9188,0.9173,0.9284,0.9257,0.9347,0.9381,0.941,0.9428,0.9483,0.9522,0.9105,0.9105,0.9105,0,0,0.9886,0.9799,0.9815,0.9753,0.9696,0.9711,0.9517,0.9541,0.9551,0.9344,0.9388,0.9323,0.9248,0.9331,0.9362,0.9286,0.9536,0.9431,0.9455,0.9457,0.9504,0.9544,0.9579,0.9116,0.9114,0.9113,0,0,1.0152,1.0086,1.0153,1.01,1.0016,0.992,0.9937,0.9821,0.9769,0.981,0.9655,0.9664,0.9654,0.9607,0.9583,0.9828,0.9713,0.9827,1.0008,1.0063,1.0096,1.0124,1.0214,1.0248,0.9845,0.9845,0.9846,0,1.034,1.0354,1.0203,1.0236,1.0214,1.0023,1.0091,1.0047,0.9964,0.9954,0.9868,0.985,0.9787,0.9856,0.9915,0.99,0.9916,0.9841,1.0103,1.013,1.0154,1.0238,1.0272,0.986,0.9858,0.9857,0.9855,0,1.059,1.0602,1.0666,1.0589,1.0572,1.0624,1.0481,1.0483,1.0385,1.0299,1.0343,1.0259,1.0224,1.0232,1.0137,1.0288,1.0243,1.0132,0.9983,1.0211,1.0287,1.0318,0.9881,0.9876,0.9871,0.9868,0,0,1.1023,1.0857,1.0884,1.0846,1.0738,1.0746,1.0787,1.075,1.0757,1.0705,1.0737,1.0731,1.0628,1.06,1.0497,1.0545,1.0747,1.0428,1.0424,1.0493,1.091,1.0997,1.1037,1.0667,1.0673,1.0677,1.0917,0,1.1269,1.133,1.1194,1.1289,1.13,1.1117,1.1153,1.1092,1.1012,1.101,1.0921,1.0921,1.0783,1.0765,1.0804,1.0715,1.0829,1.0694,1.0699,1.0701,1.0728,1.1076,1.1168,1.1399,1.0946,1.0951,1.0954,0,1.1566,1.1527,1.1624,1.1508,1.1507,1.1543,1.1498,1.1497,1.1423,1.1361,1.1329,1.1207,1.1241,1.1094,1.114,1.1052,1.1044,1.1,1.1006,1.1005,1.0845,1.1088,1.1469,1.1506,1.0999,1.0996,1.0992,0,1.1876,1.1847,1.1901,1.1873,1.174,1.1769,1.1716,1.1634,1.1621,1.1581,1.1571,1.1537,1.152,1.1496,1.1369,1.1273,1.1431,1.1273,1.1383,1.1387,1.1429,1.1429,1.1819,1.1419,1.1418,1.1417,1.1417,0,1.2168,1.2235,1.2038,1.2072,1.2141,1.1983,1.2057,1.1984,1.1913,1.1931,1.1769,1.179,1.1618,1.162,1.152,1.1574,1.1567,1.152,1.1493,1.1536,1.1543,1.1533,1.1515,1.1426,1.1424,1.1423,1.1421,0,1.2528,1.2399,1.2445,1.2314,1.2282,1.234,1.2227,1.2254,1.2161,1.2186,1.2182,1.2039,1.2033,1.1901,1.1868,1.18,1.1896,1.1838,1.1922,1.1905,1.2023,1.2016,1.2424,1.247,1.2038,1.2043,1.2046,0,1.2725,1.2772,1.2645,1.2644,1.2597,1.2597,1.2581,1.2427,1.2418,1.2336,1.2373,1.2352,1.2328,1.2326,1.2221,1.2194,1.2135,1.228,1.2131,1.2173,1.2142,1.2142,1.2147,1.2314,1.2319,1.2324,1.2327,0,1.309,1.3022,1.3005,1.2966,1.2951,1.2913,1.2865,1.2873,1.2703,1.2701,1.2691,1.2672,1.2635,1.2619,1.2572,1.2517,1.2397,1.2374,1.2399,1.2446,1.2494,1.2473,1.2012,1.2367,1.2363,1.236,1.2358,1.2356,1.3376,1.3409,1.3324,1.331,1.3257,1.3215,1.3233,1.3142,1.3131,1.3088,1.2997,1.3002,1.2925,1.2849,1.2805,1.2807,1.2734,1.2769,1.2779,1.2791,1.2816,1.249,1.2798,1.2797,1.2795,1.2794,1.2793,0,1.3734,1.367,1.3658,1.3595,1.3584,1.3466,1.3406,1.3406,1.3411,1.3349,1.3327,1.3316,1.3298,1.3189,1.3159,1.3182,1.3126,1.318,1.3179,1.3169,1.2882,1.2865,1.3226,1.3226,1.3226,1.3226,1.3226,1.3226,1.392,1.397,1.3893,1.3915,1.3849,1.3852,1.3828,1.3789,1.3738,1.3733,1.3716,1.3643,1.3563,1.3525,1.3503,1.3472,1.347,1.3544,1.3495,1.323,1.3189,1.3149,1.3133,1.3544,1.3544,1.3781,1.3783,1.3785]}]]